This is the latest recevied weather packets stored in our database for station/object JS1SZZ-13. If no packets are shown the sender has not sent any weather packets the latest 10 day(s).
| Time | Temp. | Humidity | Pressure | Rain* | Wind** | Luminosity | Snow |
|---|---|---|---|---|---|---|---|
| 1777210398 | 11.11° C | 80% | 1013.6 hPa | 0 mm | - | - | - |
| 1777209497 | 11.67° C | 80% | 1013.6 hPa | 0 mm | - | - | - |
| 1777208596 | 11.67° C | 79% | 1013.9 hPa | 0 mm | - | - | - |
| 1777207698 | 11.67° C | 78% | 1013.9 hPa | 0 mm | - | - | - |
| 1777206797 | 11.67° C | 77% | 1014.1 hPa | 0 mm | - | - | - |
| 1777205897 | 12.22° C | 75% | 1014.3 hPa | 0 mm | - | - | - |
| 1777204997 | 12.78° C | 74% | 1014.3 hPa | 0 mm | - | - | - |
| 1777204097 | 13.33° C | 73% | 1014.5 hPa | 0 mm | - | - | - |
| 1777203198 | 13.33° C | 71% | 1014.6 hPa | 0 mm | - | - | - |
| 1777202297 | 13.33° C | 71% | 1014.8 hPa | 0 mm | - | - | - |
| 1777201397 | 13.33° C | 70% | 1014.9 hPa | 0 mm | - | - | - |
| 1777200498 | 13.89° C | 70% | 1014.9 hPa | 0 mm | - | - | - |
| 1777199598 | 13.89° C | 70% | 1015 hPa | 0 mm | - | - | - |
| 1777198697 | 14.44° C | 69% | 1014.5 hPa | 0 mm | - | - | - |
| 1777197796 | 14.44° C | 64% | 1014.7 hPa | 0 mm | - | - | - |
| 1777196897 | 15° C | 62% | 1014.6 hPa | 0 mm | - | - | - |
| 1777195996 | 15.56° C | 60% | 1014.5 hPa | 0 mm | - | - | - |
| 1777195097 | 16.11° C | 58% | 1014.4 hPa | 0 mm | - | - | - |
| 1777194198 | 16.67° C | 54% | 1014.3 hPa | 0 mm | - | - | - |
| 1777193297 | 16.67° C | 53% | 1014.1 hPa | 0 mm | - | - | - |
| 1777192397 | 16.67° C | 54% | 1014.3 hPa | 0 mm | - | - | - |
| 1777191498 | 17.22° C | 53% | 1014.3 hPa | 0 mm | - | - | - |
| 1777190598 | 17.22° C | 53% | 1014.3 hPa | 0 mm | - | - | - |
| 1777189697 | 17.22° C | 52% | 1014.1 hPa | 0 mm | - | - | - |
| 1777188796 | 18.33° C | 50% | 1013.9 hPa | 0 mm | - | - | - |
* Rain latest hour (hover to see other rain measurements)
** Current wind speed in m/s (hover to see current wind gust speed)